Time,TemperatureF,DewpointF,PressureIn,WindDirection,WindDirectionDegrees,WindSpeedMPH,WindSpeedGustMPH,Humidity,HourlyPrecipIn,Conditions,Clouds,dailyrainin,SolarRadiationWatts/m^2,SoftwareType,DateUTC
2013-05-07 00:03:00,57.0,54.0,-100.00,ENE,69,1.0,5.0,89,0.00,,,0.05,0.000000,,2013-05-07 04:03:00,
2013-05-07 00:42:00,57.0,55.0,-100.00,ENE,70,0.0,6.0,92,0.00,,,0.04,0.000000,,2013-05-07 04:42:00,
2013-05-07 00:53:00,57.0,55.0,-100.00,ENE,70,0.0,6.0,92,0.00,,,0.04,0.000000,,2013-05-07 04:53:00,
2013-05-07 01:02:00,57.0,55.0,-100.00,ENE,70,0.0,6.0,92,0.00,,,0.04,0.000000,,2013-05-07 05:02:00,
2013-05-07 01:32:00,56.0,55.0,-100.00,ENE,58,0.0,4.0,95,0.00,,,0.04,0.000000,,2013-05-07 05:32:00,
2013-05-07 01:42:00,56.0,55.0,-100.00,ENE,58,0.0,4.0,95,0.00,,,0.04,0.000000,,2013-05-07 05:42:00,
2013-05-07 01:52:00,56.0,55.0,-100.00,ENE,58,0.0,4.0,95,0.00,,,0.04,0.000000,,2013-05-07 05:52:00,
2013-05-07 02:02:00,56.0,55.0,-100.00,ENE,58,0.0,4.0,95,0.00,,,0.04,0.000000,,2013-05-07 06:02:00,
2013-05-07 02:32:00,56.0,55.0,-100.00,ENE,57,1.0,7.0,96,0.00,,,0.04,0.000000,,2013-05-07 06:32:00,
2013-05-07 02:42:00,56.0,55.0,-100.00,ENE,57,1.0,7.0,96,0.00,,,0.04,0.000000,,2013-05-07 06:42:00,
2013-05-07 02:52:00,56.0,55.0,-100.00,ENE,57,1.0,7.0,96,0.00,,,0.04,0.000000,,2013-05-07 06:52:00,
2013-05-07 03:02:00,56.0,55.0,-100.00,ENE,57,1.0,7.0,96,0.00,,,0.04,0.000000,,2013-05-07 07:02:00,
2013-05-07 03:42:00,55.0,54.0,-100.00,ENE,66,0.0,4.0,97,0.00,,,0.04,0.000000,,2013-05-07 07:42:00,
2013-05-07 03:52:00,55.0,54.0,-100.00,ENE,66,0.0,4.0,97,0.00,,,0.04,0.000000,,2013-05-07 07:52:00,
2013-05-07 04:02:00,55.0,54.0,-100.00,ENE,66,0.0,4.0,97,0.00,,,0.04,0.000000,,2013-05-07 08:02:00,
2013-05-07 04:32:00,55.0,54.0,-100.00,ESE,109,0.0,3.0,98,0.00,,,0.04,0.000000,,2013-05-07 08:32:00,
2013-05-07 04:42:00,55.0,54.0,-100.00,ESE,109,0.0,3.0,98,0.00,,,0.04,0.000000,,2013-05-07 08:42:00,
2013-05-07 04:52:00,55.0,54.0,-100.00,ESE,109,0.0,3.0,98,0.00,,,0.04,0.000000,,2013-05-07 08:52:00,
2013-05-07 05:01:00,55.0,54.0,-100.00,ESE,109,0.0,3.0,98,0.00,,,0.04,0.000000,,2013-05-07 09:01:00,
2013-05-07 05:33:00,55.0,55.0,-100.00,NE,51,0.0,3.0,99,0.00,,,0.03,0.000000,,2013-05-07 09:33:00,
2013-05-07 05:43:00,55.0,55.0,-100.00,NE,51,0.0,3.0,99,0.00,,,0.03,0.000000,,2013-05-07 09:43:00,
2013-05-07 05:52:00,55.0,55.0,-100.00,NE,51,0.0,3.0,99,0.00,,,0.03,0.000000,,2013-05-07 09:52:00,
2013-05-07 06:03:00,55.0,55.0,-100.00,NE,51,0.0,3.0,99,0.00,,,0.03,0.000000,,2013-05-07 10:03:00,
2013-05-07 06:33:00,55.0,55.0,-100.00,ENE,58,1.0,5.0,99,0.01,,,0.04,0.000000,,2013-05-07 10:33:00,
2013-05-07 06:42:00,55.0,55.0,-100.00,ENE,58,1.0,5.0,99,0.01,,,0.04,0.000000,,2013-05-07 10:42:00,
2013-05-07 06:52:00,55.0,55.0,-100.00,ENE,58,1.0,5.0,99,0.01,,,0.04,0.000000,,2013-05-07 10:52:00,
2013-05-07 07:02:00,55.0,55.0,-100.00,ENE,58,1.0,5.0,99,0.01,,,0.04,0.000000,,2013-05-07 11:02:00,
2013-05-07 07:32:00,55.0,55.0,-100.00,ENE,67,1.0,6.0,100,0.00,,,0.01,2.000000,,2013-05-07 11:32:00,
2013-05-07 07:42:00,55.0,55.0,-100.00,ENE,67,1.0,6.0,100,0.00,,,0.01,2.000000,,2013-05-07 11:42:00,
2013-05-07 07:52:00,55.0,55.0,-100.00,ENE,67,1.0,6.0,100,0.00,,,0.01,2.000000,,2013-05-07 11:52:00,
2013-05-07 08:02:00,55.0,55.0,-100.00,ENE,67,1.0,6.0,100,0.00,,,0.01,2.000000,,2013-05-07 12:02:00,
2013-05-07 08:32:00,57.0,57.0,-100.00,ENE,74,1.0,6.0,99,0.00,,,-99.99,67.000000,,2013-05-07 12:32:00,
2013-05-07 08:42:00,57.0,57.0,-100.00,ENE,74,1.0,6.0,99,0.00,,,-99.99,67.000000,,2013-05-07 12:42:00,
2013-05-07 08:52:00,57.0,57.0,-100.00,ENE,74,1.0,6.0,99,0.00,,,-99.99,67.000000,,2013-05-07 12:52:00,
2013-05-07 09:02:00,57.0,57.0,-100.00,ENE,74,1.0,6.0,99,0.00,,,-99.99,67.000000,,2013-05-07 13:02:00,
2013-05-07 09:42:00,60.0,58.0,-100.00,East,94,1.0,7.0,93,0.00,,,-99.99,171.000000,,2013-05-07 13:42:00,
2013-05-07 09:52:00,60.0,58.0,-100.00,East,94,1.0,7.0,93,0.00,,,-99.99,171.000000,,2013-05-07 13:52:00,
2013-05-07 10:02:00,60.0,58.0,-100.00,East,94,1.0,7.0,93,0.00,,,-99.99,171.000000,,2013-05-07 14:02:00,
2013-05-07 10:42:00,67.0,58.0,-100.00,East,91,1.0,7.0,73,0.00,,,0.01,562.000000,,2013-05-07 14:42:00,
2013-05-07 10:52:00,67.0,58.0,-100.00,East,91,1.0,7.0,73,0.00,,,0.01,562.000000,,2013-05-07 14:52:00,
2013-05-07 11:01:00,67.0,58.0,-100.00,East,91,1.0,7.0,73,0.00,,,0.01,562.000000,,2013-05-07 15:01:00,
2013-05-07 11:33:00,66.0,56.0,-100.00,East,91,2.0,7.0,70,0.00,,,0.01,495.000000,,2013-05-07 15:33:00,
2013-05-07 11:42:00,66.0,56.0,-100.00,East,91,2.0,7.0,70,0.00,,,0.01,495.000000,,2013-05-07 15:42:00,
2013-05-07 11:53:00,66.0,56.0,-100.00,East,91,2.0,7.0,70,0.00,,,0.01,495.000000,,2013-05-07 15:53:00,
2013-05-07 12:03:00,66.0,56.0,-100.00,East,91,2.0,7.0,70,0.00,,,0.01,495.000000,,2013-05-07 16:03:00,
2013-05-07 14:42:00,71.0,55.0,-100.00,NE,34,3.0,9.0,57,-99.99,,,-99.99,708.000000,,2013-05-07 18:42:00,
2013-05-07 14:52:00,71.0,55.0,-100.00,NE,34,3.0,9.0,57,-99.99,,,-99.99,708.000000,,2013-05-07 18:52:00,
2013-05-07 15:02:00,71.0,55.0,-100.00,NE,34,3.0,9.0,57,-99.99,,,-99.99,708.000000,,2013-05-07 19:02:00,
2013-05-07 15:32:00,72.0,54.0,-100.00,East,79,2.0,9.0,54,0.00,,,0.01,608.000000,,2013-05-07 19:32:00,
2013-05-07 15:42:00,72.0,54.0,-100.00,East,79,2.0,9.0,54,0.00,,,0.01,608.000000,,2013-05-07 19:42:00,
2013-05-07 15:52:00,72.0,54.0,-100.00,East,79,2.0,9.0,54,0.00,,,0.01,608.000000,,2013-05-07 19:52:00,
2013-05-07 16:02:00,72.0,54.0,-100.00,East,79,2.0,9.0,54,0.00,,,0.01,608.000000,,2013-05-07 20:02:00,
2013-05-07 16:42:00,72.0,54.0,-100.00,East,82,2.0,10.0,54,0.00,,,0.01,485.000000,,2013-05-07 20:42:00,
2013-05-07 16:52:00,72.0,54.0,-100.00,East,82,2.0,10.0,54,0.00,,,0.01,485.000000,,2013-05-07 20:52:00,
2013-05-07 17:01:00,72.0,54.0,-100.00,East,82,2.0,10.0,54,0.00,,,0.01,485.000000,,2013-05-07 21:01:00,
2013-05-07 17:33:00,68.0,56.0,-100.00,ENE,57,1.0,7.0,65,0.00,,,0.01,174.000000,,2013-05-07 21:33:00,
2013-05-07 17:43:00,68.0,56.0,-100.00,ENE,57,1.0,7.0,65,0.00,,,0.01,174.000000,,2013-05-07 21:43:00,
2013-05-07 17:53:00,68.0,56.0,-100.00,ENE,57,1.0,7.0,65,0.00,,,0.01,174.000000,,2013-05-07 21:53:00,
2013-05-07 18:02:00,68.0,56.0,-100.00,ENE,57,1.0,7.0,65,0.00,,,0.01,174.000000,,2013-05-07 22:02:00,
2013-05-07 18:33:00,71.0,54.0,-100.00,NE,46,2.0,7.0,56,0.00,,,0.01,394.000000,,2013-05-07 22:33:00,
2013-05-07 18:42:00,71.0,54.0,-100.00,NE,46,2.0,7.0,56,0.00,,,0.01,394.000000,,2013-05-07 22:42:00,
2013-05-07 18:52:00,71.0,54.0,-100.00,NE,46,2.0,7.0,56,0.00,,,0.01,394.000000,,2013-05-07 22:52:00,
2013-05-07 19:02:00,71.0,54.0,-100.00,NE,46,2.0,7.0,56,0.00,,,0.01,394.000000,,2013-05-07 23:02:00,
2013-05-07 19:32:00,72.0,53.0,-100.00,NE,41,1.0,8.0,51,0.00,,,0.01,316.000000,,2013-05-07 23:32:00,
2013-05-07 19:42:00,72.0,53.0,-100.00,NE,41,1.0,8.0,51,0.00,,,0.01,316.000000,,2013-05-07 23:42:00,
2013-05-07 19:52:00,72.0,53.0,-100.00,NE,41,1.0,8.0,51,0.00,,,0.01,316.000000,,2013-05-07 23:52:00,
2013-05-07 20:02:00,72.0,53.0,-100.00,NE,41,1.0,8.0,51,0.00,,,0.01,316.000000,,2013-05-08 00:02:00,
2013-05-07 20:42:00,67.0,53.0,-100.00,NNE,31,0.0,6.0,61,0.00,,,-99.99,135.000000,,2013-05-08 00:42:00,
2013-05-07 20:52:00,67.0,53.0,-100.00,NNE,31,0.0,6.0,61,0.00,,,-99.99,135.000000,,2013-05-08 00:52:00,
2013-05-07 21:02:00,67.0,53.0,-100.00,NNE,31,0.0,6.0,61,0.00,,,-99.99,135.000000,,2013-05-08 01:02:00,
2013-05-07 21:32:00,61.0,54.0,-100.00,ESE,111,0.0,1.0,77,0.00,,,0.01,12.000000,,2013-05-08 01:32:00,
2013-05-07 21:42:00,61.0,54.0,-100.00,ESE,111,0.0,1.0,77,0.00,,,0.01,12.000000,,2013-05-08 01:42:00,
2013-05-07 21:52:00,61.0,54.0,-100.00,ESE,111,0.0,1.0,77,0.00,,,0.01,12.000000,,2013-05-08 01:52:00,
2013-05-07 22:02:00,61.0,54.0,-100.00,ESE,111,0.0,1.0,77,0.00,,,0.01,12.000000,,2013-05-08 02:02:00,
2013-05-07 22:32:00,59.0,54.0,-100.00,SSW,203,0.0,1.0,84,0.00,,,0.01,0.000000,,2013-05-08 02:32:00,
2013-05-07 22:42:00,59.0,54.0,-100.00,SSW,203,0.0,1.0,84,0.00,,,0.01,0.000000,,2013-05-08 02:42:00,
2013-05-07 22:52:00,59.0,54.0,-100.00,SSW,203,0.0,1.0,84,0.00,,,0.01,0.000000,,2013-05-08 02:52:00,
2013-05-07 23:02:00,59.0,54.0,-100.00,SSW,203,0.0,1.0,84,0.00,,,0.01,0.000000,,2013-05-08 03:02:00,
2013-05-07 23:33:00,60.0,54.0,-100.00,ENE,73,0.0,1.0,81,0.00,,,0.01,0.000000,,2013-05-08 03:33:00,
2013-05-07 23:43:00,60.0,54.0,-100.00,ENE,73,0.0,1.0,81,0.00,,,0.01,0.000000,,2013-05-08 03:43:00,
2013-05-07 23:52:00,60.0,54.0,-100.00,ENE,73,0.0,1.0,81,0.00,,,0.01,0.000000,,2013-05-08 03:52:00,